Flag for Germany Weather past 2 weeks in Augsburg, Bavaria, Germany

Now
39 °F

Mostly cloudy.


Feels Like: 36 °F
Forecast: 36 / 56 °F
Wind: 5 mph from Southwest

Location: Augsburg Airport


UV Index: 0 (Low)

Visibility: N/A


Pressure: 29.89 "Hg

Humidity: 93%

Dew point: 37 °F

Location of AugsburgLocation

Historic Weather in Augsburg

°F

Augsburg temperature yesterday

Maximum temperature yesterday: 55 °F (at 5:20 PM)
Minimum temperature yesterday: 30 °F (at 6:20 AM)
Average temperature yesterday: 47 °F

Past Weeks' High & Low Weather Summary

 TemperatureHumidityPressure
High68 °F (Apr 7, 2:20 PM)100% (Apr 5, 6:50 AM)30.36 "Hg (Apr 5, 6:50 AM)
Low28 °F (Apr 16, 6:20 AM)28% (Apr 17, 2:50 PM)29.68 "Hg (Apr 3, 8:20 PM)
Average51 °F62%30.07 "Hg
* Reported Apr 3 8:20 PM — Apr 18 8:50 PM, Augsburg, Weather by CustomWeather, © 2014

Note: Actual official high and low records may vary slightly from our data, if they occured in-between our weather recording intervals... More about our weather records

Advertising

Historic Weather Conditions — Data for Previous 24 hours

 ConditionsComfort  
Time TempWeatherWind HumidityBarometerVisibility
8:50 PM
Apr 18
39 °FMostly cloudy.5 mph93%29.89 "HgN/A
8:20 PM39 °FPartly sunny.6 mph93%29.89 "HgN/A
7:50 PM39 °FBroken clouds.3 mph93%29.89 "HgN/A
7:20 PM39 °FBroken clouds.7 mph100%29.89 "HgN/A
6:50 PM41 °FBroken clouds.7 mph87%29.89 "HgN/A
6:20 PM41 °FScattered clouds.5 mph87%29.86 "HgN/A
5:50 PM39 °FBroken clouds.5 mph87%29.86 "HgN/A
5:20 PM39 °FScattered clouds.7 mph87%29.86 "HgN/A
4:50 PM41 °FScattered clouds.3 mph76%29.86 "HgN/A
4:20 PM39 °FLight rain. Partly sunny.1 mph87%29.86 "HgN/A
3:50 PM39 °FLight rain. Broken clouds.7 mph93%29.86 "HgN/A
3:20 PM39 °FRain. Mostly cloudy.13 mph93%29.86 "HgN/A
2:50 PM39 °FRain. Mostly cloudy.14 mph93%29.86 "HgN/A
2:20 PM39 °FRain. Mostly cloudy.12 mph100%29.86 "HgN/A
1:50 PM41 °FRain. Mostly cloudy.18 mph100%29.86 "Hg6 mi
1:20 PM45 °FRain. Mostly cloudy.8 mph93%29.83 "Hg4 mi
12:50 PM45 °FRain. Overcast.9 mph87%29.83 "Hg5 mi
12:20 PM46 °FRain. Overcast.13 mph76%29.83 "HgN/A
11:50 AM46 °FRain. Overcast.13 mph76%29.83 "Hg4 mi
11:20 AM48 °FDrizzle. Overcast.8 mph62%29.83 "HgN/A
10:50 AM46 °FRain. Mostly cloudy.6 mph71%29.83 "HgN/A
10:20 AM46 °FMostly cloudy.3 mph62%29.86 "HgN/A
9:50 AM45 °FLight rain. Mostly cloudy.5 mph66%29.86 "HgN/A
9:20 AM45 °FLight rain. Overcast.3 mph61%29.86 "HgN/A
8:50 AM45 °FPassing clouds.3 mph57%29.86 "HgN/A
Weather by CustomWeather, © 2014

See weather overview